Location: Cheyres
(46.8153°N, 6.7877°E)
Time: 01:03:08
(UTC+00:00)

CUBEBUG 2 - Pass Details

Date: 29 June 2022
Orbit: 584 x 692 km, 97.7° (Epoch: 16 August)

Event Time Altitude Azimuth Distance (km) Brightness Sun altitude
Rises 01:28:22 0° 29° (NNE) 2,828 ? -15.5°
Reaches altitude 10° 01:31:14 10° 51° (NE) 1,930 ? -15.3°
Maximum altitude 01:33:56 17° 91° (E) 1,551 ? -15.1°
Drops below altitude 10° 01:36:39 10° 132° (SE) 1,947 ? -14.9°
Enters shadow 01:38:36 - 148° (SSE) 2,542 ? -14.7°
